TimePST,TemperatureF,Dew PointF,Humidity,Sea Level PressureIn,VisibilityMPH,Wind Direction,Wind SpeedMPH,Gust SpeedMPH,PrecipitationIn,Events,Conditions,WindDirDegrees,DateUTC
12:55 AM,57.0,12.9,18,30.15,10.0,NE,10.4,-,N/A,,Clear,50,2013-01-20 08:55:00
1:55 AM,61.0,10.0,13,30.15,10.0,ENE,11.5,-,N/A,,Clear,60,2013-01-20 09:55:00
2:55 AM,55.9,12.0,18,30.14,10.0,NE,9.2,-,N/A,,Clear,50,2013-01-20 10:55:00
3:55 AM,55.0,12.9,19,30.14,10.0,NE,8.1,-,N/A,,Clear,50,2013-01-20 11:55:00
4:55 AM,57.9,10.9,16,30.14,10.0,Calm,Calm,-,N/A,,Clear,0,2013-01-20 12:55:00
5:55 AM,55.0,12.9,19,30.14,10.0,Calm,Calm,-,N/A,,Clear,0,2013-01-20 13:55:00
6:55 AM,52.0,15.1,23,30.14,10.0,East,5.8,-,N/A,,Clear,80,2013-01-20 14:55:00
7:55 AM,55.9,17.1,22,30.14,10.0,Calm,Calm,-,N/A,,Clear,0,2013-01-20 15:55:00
8:55 AM,70.0,10.9,10,30.16,10.0,East,11.5,-,N/A,,Clear,80,2013-01-20 16:55:00
9:55 AM,75.0,9.0,8,30.16,10.0,ENE,19.6,-,N/A,,Clear,70,2013-01-20 17:55:00
10:55 AM,78.1,8.1,7,30.14,10.0,ENE,20.7,27.6,N/A,,Clear,60,2013-01-20 18:55:00
11:55 AM,80.1,7.0,6,30.10,10.0,ENE,21.9,27.6,N/A,,Unknown,60,2013-01-20 19:55:00
1:55 PM,82.0,3.9,5,30.05,10.0,ENE,19.6,27.6,N/A,,Clear,60,2013-01-20 21:55:00
2:55 PM,81.0,3.0,5,30.04,10.0,ENE,21.9,29.9,N/A,,Clear,60,2013-01-20 22:55:00
3:55 PM,79.0,3.0,5,30.05,10.0,ENE,17.3,-,N/A,,Clear,70,2013-01-20 23:55:00
4:55 PM,75.9,3.9,6,30.06,10.0,NE,15.0,-,N/A,,Clear,50,2013-01-21 00:55:00
5:55 PM,63.0,21.0,20,30.08,10.0,WNW,5.8,-,N/A,,Clear,300,2013-01-21 01:55:00
6:55 PM,61.0,24.1,24,30.10,10.0,WNW,3.5,-,N/A,,Clear,300,2013-01-21 02:55:00
7:55 PM,54.0,26.1,34,30.11,10.0,WNW,5.8,-,N/A,,Clear,300,2013-01-21 03:55:00
8:55 PM,57.0,15.1,19,30.11,10.0,NNE,4.6,-,N/A,,Clear,20,2013-01-21 04:55:00
9:55 PM,52.0,19.9,28,30.12,10.0,WNW,3.5,-,N/A,,Clear,300,2013-01-21 05:55:00
10:55 PM,52.0,17.1,25,30.11,10.0,NNE,6.9,-,N/A,,Clear,30,2013-01-21 06:55:00
11:55 PM,53.1,15.1,22,30.10,10.0,ENE,10.4,-,N/A,,Clear,60,2013-01-21 07:55:00